Year,Month,Day,Hour,Minute,Value (Times are PST for temperature in C)
2015,08,31,00,00,12.90
2015,08,31,00,01,12.90
2015,08,31,00,02,12.90
2015,08,31,00,03,12.90
2015,08,31,00,04,12.90
2015,08,31,00,05,12.90
2015,08,31,00,06,12.90
2015,08,31,00,07,12.90
2015,08,31,00,08,12.90
2015,08,31,00,09,12.90
2015,08,31,00,10,12.90
2015,08,31,00,11,12.90
2015,08,31,00,12,12.90
2015,08,31,00,13,12.90
2015,08,31,00,14,12.90
2015,08,31,00,15,12.90
2015,08,31,00,16,12.90
2015,08,31,00,17,12.90
2015,08,31,00,18,12.90
2015,08,31,00,19,12.90
2015,08,31,00,20,12.90
2015,08,31,00,21,12.90
2015,08,31,00,22,12.90
2015,08,31,00,23,12.90
2015,08,31,00,24,12.90
2015,08,31,00,25,12.90
2015,08,31,00,26,12.90
2015,08,31,00,27,12.90
2015,08,31,00,28,12.90
2015,08,31,00,29,12.90
2015,08,31,00,30,12.90
2015,08,31,00,31,12.80
2015,08,31,00,32,12.80
2015,08,31,00,33,12.80
2015,08,31,00,34,12.80
2015,08,31,00,35,12.80
2015,08,31,00,36,12.80
2015,08,31,00,37,12.80
2015,08,31,00,38,12.80
2015,08,31,00,39,12.80
2015,08,31,00,40,12.80
2015,08,31,00,41,12.80
2015,08,31,00,42,12.80
2015,08,31,00,43,12.70
2015,08,31,00,44,12.70
2015,08,31,00,45,12.70
2015,08,31,00,46,12.70
2015,08,31,00,47,12.70
2015,08,31,00,48,12.70
2015,08,31,00,49,12.70
2015,08,31,00,50,12.70
2015,08,31,00,51,12.70
2015,08,31,00,52,12.60
2015,08,31,00,53,12.60
2015,08,31,00,54,12.60
2015,08,31,00,55,12.60
2015,08,31,00,56,12.60
2015,08,31,00,57,12.60
2015,08,31,00,58,12.60
2015,08,31,00,59,12.60
2015,08,31,01,00,12.60
2015,08,31,01,01,12.50
2015,08,31,01,02,12.50
2015,08,31,01,03,12.50
2015,08,31,01,04,12.50
2015,08,31,01,05,12.50
2015,08,31,01,06,12.50
2015,08,31,01,07,12.50
2015,08,31,01,08,12.50
2015,08,31,01,09,12.50
2015,08,31,01,10,12.50
2015,08,31,01,11,12.50
2015,08,31,01,12,12.40
2015,08,31,01,13,12.40
2015,08,31,01,14,12.40
2015,08,31,01,15,12.40
2015,08,31,01,16,12.40
2015,08,31,01,17,12.40
2015,08,31,01,18,12.40
2015,08,31,01,19,12.40
2015,08,31,01,20,12.40
2015,08,31,01,21,12.40
2015,08,31,01,22,12.40
2015,08,31,01,23,12.40
2015,08,31,01,24,12.40
2015,08,31,01,25,12.40
2015,08,31,01,26,12.40
2015,08,31,01,27,12.40
2015,08,31,01,28,12.40
2015,08,31,01,29,12.40
2015,08,31,01,30,12.40
2015,08,31,01,31,12.30
2015,08,31,01,32,12.30
2015,08,31,01,33,12.30
2015,08,31,01,34,12.30
2015,08,31,01,35,12.30
2015,08,31,01,36,12.30
2015,08,31,01,37,12.30
2015,08,31,01,38,12.30
2015,08,31,01,39,12.30
2015,08,31,01,40,12.30
2015,08,31,01,41,12.30
2015,08,31,01,42,12.30
2015,08,31,01,43,12.30
2015,08,31,01,44,12.30
2015,08,31,01,45,12.30
2015,08,31,01,46,12.30
2015,08,31,01,47,12.30
2015,08,31,01,48,12.30
2015,08,31,01,49,12.30
2015,08,31,01,50,12.30
2015,08,31,01,51,12.30
2015,08,31,01,52,12.30
2015,08,31,01,53,12.30
2015,08,31,01,54,12.30
2015,08,31,01,55,12.30
2015,08,31,01,56,12.30
2015,08,31,01,57,12.30
2015,08,31,01,58,12.30
2015,08,31,01,59,12.30
2015,08,31,02,00,12.30
2015,08,31,02,01,12.30
2015,08,31,02,02,12.30
2015,08,31,02,03,12.30
2015,08,31,02,04,12.30
2015,08,31,02,05,12.30
2015,08,31,02,06,12.30
2015,08,31,02,07,12.30
2015,08,31,02,08,12.30
2015,08,31,02,09,12.30
2015,08,31,02,10,12.30
2015,08,31,02,11,12.30
2015,08,31,02,12,12.30
2015,08,31,02,13,12.30
2015,08,31,02,14,12.30
2015,08,31,02,15,12.30
2015,08,31,02,16,12.30
2015,08,31,02,17,12.30
2015,08,31,02,18,12.30
2015,08,31,02,19,12.30
2015,08,31,02,20,12.30
2015,08,31,02,21,12.40
2015,08,31,02,22,12.40
2015,08,31,02,23,12.40
2015,08,31,02,24,12.40
2015,08,31,02,25,12.40
2015,08,31,02,26,12.30
2015,08,31,02,27,12.30
2015,08,31,02,28,12.30
2015,08,31,02,29,12.30
2015,08,31,02,30,12.30
2015,08,31,02,31,12.30
2015,08,31,02,32,12.30
2015,08,31,02,33,12.30
2015,08,31,02,34,12.40
2015,08,31,02,35,12.40
2015,08,31,02,36,12.40
2015,08,31,02,37,12.50
2015,08,31,02,38,12.50
2015,08,31,02,39,12.50
2015,08,31,02,40,12.60
2015,08,31,02,41,12.60
2015,08,31,02,42,12.60
2015,08,31,02,43,12.60
2015,08,31,02,44,12.60
2015,08,31,02,45,12.60
2015,08,31,02,46,12.60
2015,08,31,02,47,12.60
2015,08,31,02,48,12.70
2015,08,31,02,49,12.70
2015,08,31,02,50,12.80
2015,08,31,02,51,12.80
2015,08,31,02,52,12.80
2015,08,31,02,53,12.80
2015,08,31,02,54,12.80
2015,08,31,02,55,12.80
2015,08,31,02,56,12.80
2015,08,31,02,57,12.80
2015,08,31,02,58,12.80
2015,08,31,02,59,12.80
2015,08,31,03,00,12.80
2015,08,31,03,01,12.70
2015,08,31,03,02,12.70
2015,08,31,03,03,12.70
2015,08,31,03,04,12.70
2015,08,31,03,05,12.70
2015,08,31,03,06,12.70
2015,08,31,03,07,12.70
2015,08,31,03,08,12.70
2015,08,31,03,09,12.70
2015,08,31,03,10,12.70
2015,08,31,03,11,12.70
2015,08,31,03,12,12.70
2015,08,31,03,13,12.70
2015,08,31,03,14,12.60
2015,08,31,03,15,12.60
2015,08,31,03,16,12.60
2015,08,31,03,17,12.60
2015,08,31,03,18,12.60
2015,08,31,03,19,12.60
2015,08,31,03,20,12.60
2015,08,31,03,21,12.60
2015,08,31,03,22,12.60
2015,08,31,03,23,12.60
2015,08,31,03,24,12.60
2015,08,31,03,25,12.60
2015,08,31,03,26,12.60
2015,08,31,03,27,12.60
2015,08,31,03,28,12.60
2015,08,31,03,29,12.60
2015,08,31,03,30,12.60
2015,08,31,03,31,12.60
2015,08,31,03,32,12.60
2015,08,31,03,33,12.60
2015,08,31,03,34,12.60
2015,08,31,03,35,12.70
2015,08,31,03,36,12.70
2015,08,31,03,37,12.70
2015,08,31,03,38,12.70
2015,08,31,03,39,12.70
2015,08,31,03,40,12.70
2015,08,31,03,41,12.70
2015,08,31,03,42,12.70
2015,08,31,03,43,12.70
2015,08,31,03,44,12.70
2015,08,31,03,45,12.70
2015,08,31,03,46,12.70
2015,08,31,03,47,12.60
2015,08,31,03,48,12.60
2015,08,31,03,49,12.60
2015,08,31,03,50,12.60
2015,08,31,03,51,12.60
2015,08,31,03,52,12.60
2015,08,31,03,53,12.60
2015,08,31,03,54,12.60
2015,08,31,03,55,12.60
2015,08,31,03,56,12.60
2015,08,31,03,57,12.60
2015,08,31,03,58,12.60
2015,08,31,03,59,12.60
2015,08,31,04,00,12.60
2015,08,31,04,01,12.50
2015,08,31,04,02,12.50
2015,08,31,04,03,12.50
2015,08,31,04,04,12.50
2015,08,31,04,05,12.50
2015,08,31,04,06,12.40
2015,08,31,04,07,12.40
2015,08,31,04,08,12.40
2015,08,31,04,09,12.40
2015,08,31,04,10,12.40
2015,08,31,04,11,12.40
2015,08,31,04,12,12.40
2015,08,31,04,13,12.40
2015,08,31,04,14,12.40
2015,08,31,04,15,12.40
2015,08,31,04,16,12.40
2015,08,31,04,17,12.40
2015,08,31,04,18,12.40
2015,08,31,04,19,12.40
2015,08,31,04,20,12.40
2015,08,31,04,21,12.30
2015,08,31,04,22,12.30
2015,08,31,04,23,12.30
2015,08,31,04,24,12.30
2015,08,31,04,25,12.30
2015,08,31,04,26,12.30
2015,08,31,04,27,12.40
2015,08,31,04,28,12.30
2015,08,31,04,29,12.40
2015,08,31,04,30,12.40
2015,08,31,04,31,12.40
2015,08,31,04,32,12.40
2015,08,31,04,33,12.40
2015,08,31,04,34,12.40
2015,08,31,04,35,12.40
2015,08,31,04,36,12.40
2015,08,31,04,37,12.40
2015,08,31,04,38,12.40
2015,08,31,04,39,12.40
2015,08,31,04,40,12.40
2015,08,31,04,41,12.40
2015,08,31,04,42,12.40
2015,08,31,04,43,12.40
2015,08,31,04,44,12.40
2015,08,31,04,45,12.40
2015,08,31,04,46,12.40
2015,08,31,04,47,12.40
2015,08,31,04,48,12.40
2015,08,31,04,49,12.40
2015,08,31,04,50,12.40
2015,08,31,04,51,12.40
2015,08,31,04,52,12.40
2015,08,31,04,53,12.40
2015,08,31,04,54,12.40
2015,08,31,04,55,12.40
2015,08,31,04,56,12.40
2015,08,31,04,57,12.40
2015,08,31,04,58,12.40
2015,08,31,04,59,12.40
2015,08,31,05,00,12.40
2015,08,31,05,01,12.40
2015,08,31,05,02,12.40
2015,08,31,05,03,12.40
2015,08,31,05,04,12.40
2015,08,31,05,05,12.40
2015,08,31,05,06,12.40
2015,08,31,05,07,12.50
2015,08,31,05,08,12.60
2015,08,31,05,09,12.60
2015,08,31,05,10,12.60
2015,08,31,05,11,12.70
2015,08,31,05,12,12.70
2015,08,31,05,13,12.70
2015,08,31,05,14,12.70
2015,08,31,05,15,12.70
2015,08,31,05,16,12.70
2015,08,31,05,17,12.70
2015,08,31,05,18,12.70
2015,08,31,05,19,12.70
2015,08,31,05,20,12.70
2015,08,31,05,21,12.70
2015,08,31,05,22,12.70
2015,08,31,05,23,12.70
2015,08,31,05,24,12.70
2015,08,31,05,25,12.70
2015,08,31,05,26,12.70
2015,08,31,05,27,12.70
2015,08,31,05,28,12.70
2015,08,31,05,29,12.70
2015,08,31,05,30,12.70
2015,08,31,05,31,12.70
2015,08,31,05,32,12.80
2015,08,31,05,33,12.80
2015,08,31,05,34,12.80
2015,08,31,05,35,12.80
2015,08,31,05,36,12.80
2015,08,31,05,37,12.80
2015,08,31,05,38,12.80
2015,08,31,05,39,12.80
2015,08,31,05,40,12.80
2015,08,31,05,41,12.90
2015,08,31,05,42,12.90
2015,08,31,05,43,12.90
2015,08,31,05,44,12.90
2015,08,31,05,45,12.90
2015,08,31,05,46,12.90
2015,08,31,05,47,12.90
2015,08,31,05,48,13.00
2015,08,31,05,49,13.00
2015,08,31,05,50,13.00
2015,08,31,05,51,13.00
2015,08,31,05,52,13.00
2015,08,31,05,53,13.00
2015,08,31,05,54,13.00
2015,08,31,05,55,13.00
2015,08,31,05,56,13.10
2015,08,31,05,57,13.10
2015,08,31,05,58,13.10
2015,08,31,05,59,13.10
2015,08,31,06,00,13.10
2015,08,31,06,01,13.10
2015,08,31,06,02,13.10
2015,08,31,06,03,13.10
2015,08,31,06,04,13.10
2015,08,31,06,05,13.10
2015,08,31,06,06,13.10
2015,08,31,06,07,13.10
2015,08,31,06,08,13.10
2015,08,31,06,09,13.10
2015,08,31,06,10,13.10
2015,08,31,06,11,13.10
2015,08,31,06,12,13.10
2015,08,31,06,13,13.10
2015,08,31,06,14,13.10
2015,08,31,06,15,13.10
2015,08,31,06,16,13.10
2015,08,31,06,17,13.10
2015,08,31,06,18,13.10
2015,08,31,06,19,13.10
2015,08,31,06,20,13.20
2015,08,31,06,21,13.10
2015,08,31,06,22,13.10
2015,08,31,06,23,13.10
2015,08,31,06,24,13.10
2015,08,31,06,25,13.10
2015,08,31,06,26,13.10
2015,08,31,06,27,13.10
2015,08,31,06,28,13.10
2015,08,31,06,29,13.10
2015,08,31,06,30,13.10
2015,08,31,06,31,13.10
2015,08,31,06,32,13.10
2015,08,31,06,33,13.10
2015,08,31,06,34,13.10
2015,08,31,06,35,13.10
2015,08,31,06,36,13.00
2015,08,31,06,37,13.00
2015,08,31,06,38,13.00
2015,08,31,06,39,13.00
2015,08,31,06,40,12.90
2015,08,31,06,41,12.90
2015,08,31,06,42,12.90
2015,08,31,06,43,12.90
2015,08,31,06,44,12.90
2015,08,31,06,45,12.80
2015,08,31,06,46,12.80
2015,08,31,06,47,12.80
2015,08,31,06,48,12.90
2015,08,31,06,49,12.90
2015,08,31,06,50,12.90
2015,08,31,06,51,12.90
2015,08,31,06,52,12.90
2015,08,31,06,53,12.90
2015,08,31,06,54,12.90
2015,08,31,06,55,12.90
2015,08,31,06,56,12.90
2015,08,31,06,57,12.90
2015,08,31,06,58,12.90
2015,08,31,06,59,12.90
2015,08,31,07,00,12.80
2015,08,31,07,01,12.90
2015,08,31,07,02,12.90
2015,08,31,07,03,12.90
2015,08,31,07,04,12.90
2015,08,31,07,05,12.90
2015,08,31,07,06,12.90
2015,08,31,07,07,12.90
2015,08,31,07,08,12.80
2015,08,31,07,09,12.80
2015,08,31,07,10,12.80
2015,08,31,07,11,12.80
2015,08,31,07,12,12.80
2015,08,31,07,13,12.80
2015,08,31,07,14,12.80
2015,08,31,07,15,12.80
2015,08,31,07,16,12.80
2015,08,31,07,17,12.80
2015,08,31,07,18,12.70
2015,08,31,07,19,12.70
2015,08,31,07,20,12.70
2015,08,31,07,21,12.70
2015,08,31,07,22,12.70
2015,08,31,07,23,12.70
2015,08,31,07,24,12.70
2015,08,31,07,25,12.70
2015,08,31,07,26,12.70
2015,08,31,07,27,12.70
2015,08,31,07,28,12.60
2015,08,31,07,29,12.60
2015,08,31,07,30,12.60
2015,08,31,07,31,12.60
2015,08,31,07,32,12.60
2015,08,31,07,33,12.60
2015,08,31,07,34,12.60
2015,08,31,07,35,12.60
2015,08,31,07,36,12.60
2015,08,31,07,37,12.50
2015,08,31,07,38,12.50
2015,08,31,07,39,12.50
2015,08,31,07,40,12.50
2015,08,31,07,41,12.50
2015,08,31,07,42,12.50
2015,08,31,07,43,12.40
2015,08,31,07,44,12.40
2015,08,31,07,45,12.40
2015,08,31,07,46,12.40
2015,08,31,07,47,12.40
2015,08,31,07,48,12.30
2015,08,31,07,49,12.30
2015,08,31,07,50,12.30
2015,08,31,07,51,12.20
2015,08,31,07,52,12.20
2015,08,31,07,53,12.20
2015,08,31,07,54,12.20
2015,08,31,07,55,12.20
2015,08,31,07,56,12.20
2015,08,31,07,57,12.20
2015,08,31,07,58,12.20
2015,08,31,07,59,12.20
2015,08,31,08,00,12.20
2015,08,31,08,01,12.10
2015,08,31,08,02,12.10
2015,08,31,08,03,12.10
2015,08,31,08,04,12.10
2015,08,31,08,05,12.10
2015,08,31,08,06,12.10
2015,08,31,08,07,12.10
2015,08,31,08,08,12.10
2015,08,31,08,09,12.20
2015,08,31,08,10,12.20
2015,08,31,08,11,12.20
2015,08,31,08,12,12.20
2015,08,31,08,13,12.20
2015,08,31,08,14,12.20
2015,08,31,08,15,12.20
2015,08,31,08,16,12.20
2015,08,31,08,17,12.20
2015,08,31,08,18,12.20
2015,08,31,08,19,12.20
2015,08,31,08,20,12.20
2015,08,31,08,21,12.20
2015,08,31,08,22,12.20
2015,08,31,08,23,12.20
2015,08,31,08,24,12.20
2015,08,31,08,25,12.20
2015,08,31,08,26,12.20
2015,08,31,08,27,12.20
2015,08,31,08,28,12.20
2015,08,31,08,29,12.20
2015,08,31,08,30,12.20
2015,08,31,08,31,12.20
2015,08,31,08,32,12.20
2015,08,31,08,33,12.20
2015,08,31,08,34,12.20
2015,08,31,08,35,12.20
2015,08,31,08,36,12.20
2015,08,31,08,37,12.20
2015,08,31,08,38,12.20
2015,08,31,08,39,12.10
2015,08,31,08,40,12.10
2015,08,31,08,41,12.10
2015,08,31,08,42,12.10
2015,08,31,08,43,12.10
2015,08,31,08,44,12.10
2015,08,31,08,45,12.10
2015,08,31,08,46,12.10
2015,08,31,08,47,12.10
2015,08,31,08,48,12.10
2015,08,31,08,49,12.10
2015,08,31,08,50,12.10
2015,08,31,08,51,12.10
2015,08,31,08,52,12.10
2015,08,31,08,53,12.10
2015,08,31,08,54,12.10
2015,08,31,08,55,12.10
2015,08,31,08,56,12.10
2015,08,31,08,57,12.10
2015,08,31,08,58,12.10
2015,08,31,08,59,12.10
2015,08,31,09,00,12.10
2015,08,31,09,01,12.10
2015,08,31,09,02,12.10
2015,08,31,09,03,12.10
2015,08,31,09,04,12.00
2015,08,31,09,05,12.10
2015,08,31,09,06,12.00
2015,08,31,09,07,12.00
2015,08,31,09,08,12.00
2015,08,31,09,09,12.00
2015,08,31,09,10,12.00
2015,08,31,09,11,12.00
2015,08,31,09,12,12.00
2015,08,31,09,13,12.00
2015,08,31,09,14,12.10
2015,08,31,09,15,12.10
2015,08,31,09,16,12.10
2015,08,31,09,17,12.10
2015,08,31,09,18,12.10
2015,08,31,09,19,12.10
2015,08,31,09,20,12.10
2015,08,31,09,21,12.10
2015,08,31,09,22,12.10
2015,08,31,09,23,12.10
2015,08,31,09,24,12.10
2015,08,31,09,25,12.20
2015,08,31,09,26,12.20
2015,08,31,09,27,12.20
2015,08,31,09,28,12.20
2015,08,31,09,29,12.20
2015,08,31,09,30,12.20
2015,08,31,09,31,12.20
2015,08,31,09,32,12.30
2015,08,31,09,33,12.30
2015,08,31,09,34,12.30
2015,08,31,09,35,12.30
2015,08,31,09,36,12.30
2015,08,31,09,37,12.30
2015,08,31,09,38,12.30
2015,08,31,09,39,12.30
2015,08,31,09,40,12.30
2015,08,31,09,41,12.40
2015,08,31,09,42,12.40
2015,08,31,09,43,12.40
2015,08,31,09,44,12.40
2015,08,31,09,45,12.40
2015,08,31,09,46,12.40
2015,08,31,09,47,12.50
2015,08,31,09,48,12.50
2015,08,31,09,49,12.50
2015,08,31,09,50,12.50
2015,08,31,09,51,12.60
2015,08,31,09,52,12.60
2015,08,31,09,53,12.60
2015,08,31,09,54,12.70
2015,08,31,09,55,12.70
2015,08,31,09,56,12.70
2015,08,31,09,57,12.70
2015,08,31,09,58,12.80
2015,08,31,09,59,12.80
2015,08,31,10,00,12.80
2015,08,31,10,01,12.80
2015,08,31,10,02,12.90
2015,08,31,10,03,12.90
2015,08,31,10,04,12.90
2015,08,31,10,05,12.90
2015,08,31,10,06,12.90
2015,08,31,10,07,12.90
2015,08,31,10,08,12.90
2015,08,31,10,09,13.00
2015,08,31,10,10,13.00
2015,08,31,10,11,13.00
2015,08,31,10,12,13.10
2015,08,31,10,13,13.10
2015,08,31,10,14,13.10
2015,08,31,10,15,13.10
2015,08,31,10,16,13.10
2015,08,31,10,17,13.20
2015,08,31,10,18,13.10
2015,08,31,10,19,13.10
2015,08,31,10,20,13.10
2015,08,31,10,21,13.10
2015,08,31,10,22,13.20
2015,08,31,10,23,13.20
2015,08,31,10,24,13.20
2015,08,31,10,25,13.20
2015,08,31,10,26,13.20
2015,08,31,10,27,13.30
2015,08,31,10,28,13.30
2015,08,31,10,29,13.30
2015,08,31,10,30,13.30
2015,08,31,10,31,13.30
2015,08,31,10,32,13.30
2015,08,31,10,33,13.30
2015,08,31,10,34,13.30
2015,08,31,10,35,13.30
2015,08,31,10,36,13.30
2015,08,31,10,37,13.30
2015,08,31,10,38,13.40
2015,08,31,10,39,13.40
2015,08,31,10,40,13.40
2015,08,31,10,41,13.40
2015,08,31,10,42,13.40
2015,08,31,10,43,13.40
2015,08,31,10,44,13.40
2015,08,31,10,45,13.40
2015,08,31,10,46,13.40
2015,08,31,10,47,13.40
2015,08,31,10,48,13.40
2015,08,31,10,49,13.40
2015,08,31,10,50,13.40
2015,08,31,10,51,13.40
2015,08,31,10,52,13.40
2015,08,31,10,53,13.40
2015,08,31,10,54,13.40
2015,08,31,10,55,13.50
2015,08,31,10,56,13.50
2015,08,31,10,57,13.50
2015,08,31,10,58,13.50
2015,08,31,10,59,13.50
2015,08,31,11,00,13.60
2015,08,31,11,01,13.50
2015,08,31,11,02,13.50
2015,08,31,11,03,13.40
2015,08,31,11,04,13.40
2015,08,31,11,05,13.30
2015,08,31,11,06,13.30
2015,08,31,11,07,13.30
2015,08,31,11,08,13.40
2015,08,31,11,09,13.40
2015,08,31,11,10,13.40
2015,08,31,11,11,13.40
2015,08,31,11,12,13.40
2015,08,31,11,13,13.40
2015,08,31,11,14,13.40
2015,08,31,11,15,13.40
2015,08,31,11,16,13.40
2015,08,31,11,17,13.40
2015,08,31,11,18,13.40
2015,08,31,11,19,13.40
2015,08,31,11,20,13.30
2015,08,31,11,21,13.30
2015,08,31,11,22,13.30
2015,08,31,11,23,13.30
2015,08,31,11,24,13.30
2015,08,31,11,25,13.30
2015,08,31,11,26,13.30
2015,08,31,11,27,13.30
2015,08,31,11,28,13.40
2015,08,31,11,29,13.40
2015,08,31,11,30,13.40
2015,08,31,11,31,13.40
2015,08,31,11,32,13.50
2015,08,31,11,33,13.60
2015,08,31,11,34,13.60
2015,08,31,11,35,13.60
2015,08,31,11,36,13.60
2015,08,31,11,37,13.70
2015,08,31,11,38,13.70
2015,08,31,11,39,13.70
2015,08,31,11,40,13.70
2015,08,31,11,41,13.70
2015,08,31,11,42,13.70
2015,08,31,11,43,13.80
2015,08,31,11,44,13.80
2015,08,31,11,45,13.80
2015,08,31,11,46,13.80
2015,08,31,11,47,13.80
2015,08,31,11,48,13.80
2015,08,31,11,49,13.80
2015,08,31,11,50,13.80
2015,08,31,11,51,13.90
2015,08,31,11,52,13.90
2015,08,31,11,53,14.00
2015,08,31,11,54,14.00
2015,08,31,11,55,14.10
2015,08,31,11,56,14.10
2015,08,31,11,57,14.10
2015,08,31,11,58,14.10
2015,08,31,11,59,14.10
2015,08,31,12,00,14.20
2015,08,31,12,01,14.20
2015,08,31,12,02,14.20
2015,08,31,12,03,14.30
2015,08,31,12,04,14.30
2015,08,31,12,05,14.30
2015,08,31,12,06,14.30
2015,08,31,12,07,14.30
2015,08,31,12,08,14.30
2015,08,31,12,09,14.40
2015,08,31,12,10,14.40
2015,08,31,12,11,14.40
2015,08,31,12,12,14.50
2015,08,31,12,13,14.50
2015,08,31,12,14,14.60
2015,08,31,12,15,14.60
2015,08,31,12,16,14.60
2015,08,31,12,17,14.70
2015,08,31,12,18,14.70
2015,08,31,12,19,14.70
2015,08,31,12,20,14.70
2015,08,31,12,21,14.80
2015,08,31,12,22,14.80
2015,08,31,12,23,14.80
2015,08,31,12,24,14.80
2015,08,31,12,25,14.90
2015,08,31,12,26,14.90
2015,08,31,12,27,15.00
2015,08,31,12,28,15.00
2015,08,31,12,29,15.00
2015,08,31,12,30,15.10
2015,08,31,12,31,15.10
2015,08,31,12,32,15.10
2015,08,31,12,33,15.10
2015,08,31,12,34,15.10
2015,08,31,12,35,15.10
2015,08,31,12,36,15.10
2015,08,31,12,37,15.10
2015,08,31,12,38,15.10
2015,08,31,12,39,15.10
2015,08,31,12,40,15.10
2015,08,31,12,41,15.10
2015,08,31,12,42,15.10
2015,08,31,12,43,15.10
2015,08,31,12,44,15.20
2015,08,31,12,45,15.20
2015,08,31,12,46,15.10
2015,08,31,12,47,15.10
2015,08,31,12,48,15.10
2015,08,31,12,49,15.10
2015,08,31,12,50,15.10
2015,08,31,12,51,15.10
2015,08,31,12,52,15.10
2015,08,31,12,53,15.10
2015,08,31,12,54,15.10
2015,08,31,12,55,15.10
2015,08,31,12,56,15.10
2015,08,31,12,57,15.10
2015,08,31,12,58,15.00
2015,08,31,12,59,15.00
2015,08,31,13,00,15.00
2015,08,31,13,01,14.90
2015,08,31,13,02,14.90
2015,08,31,13,03,14.90
2015,08,31,13,04,14.90
2015,08,31,13,05,14.90
2015,08,31,13,06,14.90
2015,08,31,13,07,14.90
2015,08,31,13,08,15.00
2015,08,31,13,09,15.00
2015,08,31,13,10,15.00
2015,08,31,13,11,15.00
2015,08,31,13,12,15.00
2015,08,31,13,13,15.00
2015,08,31,13,14,15.10
2015,08,31,13,15,15.10
2015,08,31,13,16,15.10
2015,08,31,13,17,15.10
2015,08,31,13,18,15.10
2015,08,31,13,19,15.10
2015,08,31,13,20,15.10
2015,08,31,13,21,15.00
2015,08,31,13,22,15.00
2015,08,31,13,23,15.00
2015,08,31,13,24,15.00
2015,08,31,13,25,14.90
2015,08,31,13,26,14.90
2015,08,31,13,27,14.90
2015,08,31,13,28,14.90
2015,08,31,13,29,14.90
2015,08,31,13,30,14.90
2015,08,31,13,31,14.80
2015,08,31,13,32,14.80
2015,08,31,13,33,14.80
2015,08,31,13,34,14.80
2015,08,31,13,35,14.80
2015,08,31,13,36,14.80
2015,08,31,13,37,14.80
2015,08,31,13,38,14.80
2015,08,31,13,39,14.80
2015,08,31,13,40,14.80
2015,08,31,13,41,14.80
2015,08,31,13,42,14.80
2015,08,31,13,43,14.80
2015,08,31,13,44,14.80
2015,08,31,13,45,14.80
2015,08,31,13,46,14.70
2015,08,31,13,47,14.80
2015,08,31,13,48,14.80
2015,08,31,13,49,14.80
2015,08,31,13,50,14.80
2015,08,31,13,51,14.80
2015,08,31,13,52,14.80
2015,08,31,13,53,14.80
2015,08,31,13,54,14.80
2015,08,31,13,55,14.80
2015,08,31,13,56,14.80
2015,08,31,13,57,14.80
2015,08,31,13,58,14.80
2015,08,31,13,59,14.80
2015,08,31,14,00,14.80
2015,08,31,14,01,14.80
2015,08,31,14,02,14.80
2015,08,31,14,03,14.80
2015,08,31,14,04,14.70
2015,08,31,14,05,14.70
2015,08,31,14,06,14.70
2015,08,31,14,07,14.70
2015,08,31,14,08,14.70
2015,08,31,14,09,14.70
2015,08,31,14,10,14.70
2015,08,31,14,11,14.70
2015,08,31,14,12,14.70
2015,08,31,14,13,14.70
2015,08,31,14,14,14.70
2015,08,31,14,15,14.70
2015,08,31,14,16,14.70
2015,08,31,14,17,14.70
2015,08,31,14,18,14.70
2015,08,31,14,19,14.70
2015,08,31,14,20,14.70
2015,08,31,14,21,14.70
2015,08,31,14,22,14.70
2015,08,31,14,23,14.70
2015,08,31,14,24,14.70
2015,08,31,14,25,14.70
2015,08,31,14,26,14.70
2015,08,31,14,27,14.70
2015,08,31,14,28,14.70
2015,08,31,14,29,14.70
2015,08,31,14,30,14.70
2015,08,31,14,31,14.70
2015,08,31,14,32,14.70
2015,08,31,14,33,14.70
2015,08,31,14,34,14.70
2015,08,31,14,35,14.70
2015,08,31,14,36,14.70
2015,08,31,14,37,14.70
2015,08,31,14,38,14.70
2015,08,31,14,39,14.70
2015,08,31,14,40,14.70
2015,08,31,14,41,14.70
2015,08,31,14,42,14.70
2015,08,31,14,43,14.70
2015,08,31,14,44,14.70
2015,08,31,14,45,14.70
2015,08,31,14,46,14.80
2015,08,31,14,47,14.80
2015,08,31,14,48,14.70
2015,08,31,14,49,14.80
2015,08,31,14,50,14.80
2015,08,31,14,51,14.80
2015,08,31,14,52,14.80
2015,08,31,14,53,14.80
2015,08,31,14,54,14.80
2015,08,31,14,55,14.80
2015,08,31,14,56,14.80
2015,08,31,14,57,14.80
2015,08,31,14,58,14.80
2015,08,31,14,59,14.80
2015,08,31,15,00,14.80
2015,08,31,15,01,14.80
2015,08,31,15,02,14.80
2015,08,31,15,03,14.80
2015,08,31,15,04,14.80
2015,08,31,15,05,14.80
2015,08,31,15,06,14.80
2015,08,31,15,07,14.80
2015,08,31,15,08,14.90
2015,08,31,15,09,14.90
2015,08,31,15,10,14.90
2015,08,31,15,11,14.90
2015,08,31,15,12,14.90
2015,08,31,15,13,14.90
2015,08,31,15,14,14.90
2015,08,31,15,15,14.90
2015,08,31,15,16,14.90
2015,08,31,15,17,14.90
2015,08,31,15,18,14.90
2015,08,31,15,19,14.90
2015,08,31,15,20,14.90
2015,08,31,15,21,14.90
2015,08,31,15,22,14.90
2015,08,31,15,23,14.90
2015,08,31,15,24,14.90
2015,08,31,15,25,14.90
2015,08,31,15,26,14.90
2015,08,31,15,27,14.90
2015,08,31,15,28,14.90
2015,08,31,15,29,14.90
2015,08,31,15,30,14.90
2015,08,31,15,31,15.00
2015,08,31,15,32,15.00
2015,08,31,15,33,15.00
2015,08,31,15,34,15.00
2015,08,31,15,35,15.00
2015,08,31,15,36,15.00
2015,08,31,15,37,15.00
2015,08,31,15,38,15.00
2015,08,31,15,39,15.00
2015,08,31,15,40,15.10
2015,08,31,15,41,15.10
2015,08,31,15,42,15.10
2015,08,31,15,43,15.10
2015,08,31,15,44,15.10
2015,08,31,15,45,15.10
2015,08,31,15,46,15.10
2015,08,31,15,47,15.10
2015,08,31,15,48,15.10
2015,08,31,15,49,15.10
2015,08,31,15,50,15.10
2015,08,31,15,51,15.10
2015,08,31,15,52,15.10
2015,08,31,15,53,15.10
2015,08,31,15,54,15.10
2015,08,31,15,55,15.10
2015,08,31,15,56,15.10
2015,08,31,15,57,15.10
2015,08,31,15,58,15.10
2015,08,31,15,59,15.10
2015,08,31,16,00,15.10
2015,08,31,16,01,15.10
2015,08,31,16,02,15.20
2015,08,31,16,03,15.20
2015,08,31,16,04,15.20
2015,08,31,16,05,15.20
2015,08,31,16,06,15.20
2015,08,31,16,07,15.20
2015,08,31,16,08,15.20
2015,08,31,16,09,15.20
2015,08,31,16,10,15.30
2015,08,31,16,11,15.30
2015,08,31,16,12,15.30
2015,08,31,16,13,15.30
2015,08,31,16,14,15.40
2015,08,31,16,15,15.40
2015,08,31,16,16,15.40
2015,08,31,16,17,15.40
2015,08,31,16,18,15.50
2015,08,31,16,19,15.50
2015,08,31,16,20,15.50
2015,08,31,16,21,15.50
2015,08,31,16,22,15.50
2015,08,31,16,23,15.60
2015,08,31,16,24,15.60
2015,08,31,16,25,15.60
2015,08,31,16,26,15.60
2015,08,31,16,27,15.60
2015,08,31,16,28,15.60
2015,08,31,16,29,15.60
2015,08,31,16,30,15.60
2015,08,31,16,31,15.60
2015,08,31,16,32,15.60
2015,08,31,16,33,15.60
2015,08,31,16,34,15.60
2015,08,31,16,35,15.60
2015,08,31,16,36,15.60
2015,08,31,16,37,15.60
2015,08,31,16,38,15.60
2015,08,31,16,39,15.60
2015,08,31,16,40,15.60
2015,08,31,16,41,15.60
2015,08,31,16,42,15.60
2015,08,31,16,43,15.60
2015,08,31,16,44,15.60
2015,08,31,16,45,15.60
2015,08,31,16,46,15.60
2015,08,31,16,47,15.70
2015,08,31,16,48,15.70
2015,08,31,16,49,15.70
2015,08,31,16,50,15.70
2015,08,31,16,51,15.70
2015,08,31,16,52,15.70
2015,08,31,16,53,15.70
2015,08,31,16,54,15.80
2015,08,31,16,55,15.80
2015,08,31,16,56,15.80
2015,08,31,16,57,15.80
2015,08,31,16,58,15.80
2015,08,31,16,59,15.80
2015,08,31,17,00,15.80
2015,08,31,17,01,15.80
2015,08,31,17,02,15.80
2015,08,31,17,03,15.80
2015,08,31,17,04,15.90
2015,08,31,17,05,15.90
2015,08,31,17,06,15.90
2015,08,31,17,07,15.90
2015,08,31,17,08,16.00
2015,08,31,17,09,16.00
2015,08,31,17,10,16.10
2015,08,31,17,11,16.10
2015,08,31,17,12,16.10
2015,08,31,17,13,16.10
2015,08,31,17,14,16.20
2015,08,31,17,15,16.20
2015,08,31,17,16,16.20
2015,08,31,17,17,16.20
2015,08,31,17,18,16.20
2015,08,31,17,19,16.20